sat.trackr.live / text

‹ back to catalog

TURKMENALEM52E/MONACOSAT

NORAD 40617 · 2015-023A

PAYLOAD ACTIVE UNKNOWN

§ Identity

Operator
Country
TMMC
Launch date
2015-04-27
Launch site
AFETR
Launch vehicle
Mass (kg)
RCS (m²)
8.94

Purposes: comms

External: N2YO · Heavens-Above · Gunter

§ Orbital elements

Epoch: 2026-05-25T03:59:23.345952Z

Period
1,436.07 min
Inclination
0.0502°
Eccentricity
0.0003032
Mean motion
1.00273544 rev/d
Perigee alt
35,773.3 km
Apogee alt
35,798.9 km
Semi-major
42,164.2 km
B*
0.0000e+0
RAAN
90.5516°
Arg perigee
330.9080°
Mean anomaly
293.1617°
Rev number
4,061

§ Raw data

TURKMENALEM52E/MONACOSAT1 40617U 15023A   26145.16624243  .00000101  00000+0  00000+0 0  99952 40617   0.0502  90.5516 0003032 330.9080 293.1617  1.00273544 40610

JSON: /api/v1/satellites/40617 · /tle

For live sub-satellite position, see the globe view (requires WebGL).

§ Visibility from observer

Set your observer location to see the next 7 days of passes ≥ 10°. The values pass through the URL so the page stays shareable.

No JS? Fill the form by hand. The geolocation button needs JavaScript.